Theta_e
282 282 283 283 283 284 283 284 284 284 284 284 283 283 283 283 284 284 284 284 284 285 285 284 284 284 284 283 283 282 281 280 280 279 279 279 280 280 279 279 279 279 279 279 279 279 279 279 279 279 279 279 278 279 279 279 279 278 278 278 279 279
282 282 282 282 283 283 283 283 283 283 284 283 283 284 283 283 284 284 284 284 284 284 284 283 283 283 282 281 280 279 279 278 278 278 278 278 279 279 279 278 278 278 278 278 278 278 278 278 278 278 278 278 278 278 278 278 278 277 277 277 278 278
282 282 282 282 282 282 283 283 283 283 283 283 283 282 283 283 283 284 284 284 283 283 282 281 281 280 280 279 278 278 277 277 278 277 277 278 277 278 277 277 277 277 277 277 277 277 277 277 277 277 277 277 277 277 277 277 277 276 276 277 276 277
281 282 282 282 282 282 282 283 282 282 282 282 282 282 282 283 283 283 283 282 282 281 280 279 278 278 277 277 277 277 276 276 276 276 277 276 276 277 276 276 276 276 276 276 276 276 276 276 276 276 276 276 275 275 276 276 276 275 275 275 275 276
280 281 281 281 282 282 282 282 282 282 282 282 282 282 282 282 282 282 282 281 280 278 277 277 276 276 276 276 276 275 276 276 276 276 275 275 275 276 275 275 275 275 275 275 275 275 275 275 275 275 275 275 275 274 274 275 275 274 274 274 274 275
280 281 281 282 282 282 281 281 281 282 281 282 281 282 282 281 281 281 280 278 277 276 276 275 275 275 275 275 275 275 275 275 275 275 275 275 274 274 275 275 274 274 274 273 274 274 274 274 274 274 274 274 274 274 274 274 274 274 274 274 274 274
280 281 281 281 281 281 281 281 281 281 281 281 281 281 281 280 280 279 277 276 275 275 274 274 274 274 274 274 274 274 274 274 274 274 274 274 273 273 273 273 273 273 273 273 273 273 273 273 273 273 273 273 273 273 273 273 273 273 274 274 274 275
280 280 281 281 281 281 280 280 280 280 281 281 280 280 279 279 278 276 275 274 274 274 273 274 274 274 274 274 274 273 273 273 273 273 273 273 272 272 272 272 272 272 272 272 272 271 271 271 272 272 272 272 273 273 273 273 273 273 273 273 273 273
281 281 281 281 280 279 279 279 280 280 280 279 279 279 278 277 275 274 274 274 273 273 273 273 273 273 273 273 273 273 273 273 272 272 272 272 271 271 270 271 271 271 271 271 271 270 270 271 271 271 271 271 271 271 271 272 272 272 273 274 274 274
281 281 281 280 280 279 279 279 279 279 278 278 278 277 276 275 274 273 273 273 273 273 273 273 273 273 273 273 273 272 272 272 271 271 271 271 270 270 270 270 270 270 270 269 269 270 270 270 270 270 270 271 271 271 272 272 273 273 273 273 273 274
281 281 280 279 278 279 279 279 278 278 277 277 276 275 274 274 273 273 272 272 272 272 273 273 273 273 273 272 272 271 271 271 270 270 270 269 269 269 269 269 269 268 268 269 269 269 269 269 269 270 270 271 271 272 272 272 272 272 272 272 272 273
280 280 279 278 278 278 278 278 277 276 276 275 274 273 273 273 272 272 272 272 272 272 273 272 272 272 271 271 270 270 270 269 269 268 268 268 268 268 268 268 268 268 268 268 268 268 268 268 269 271 273 274 272 272 272 272 272 272 272 271 271 272
280 278 278 278 278 278 277 276 276 275 274 273 273 273 273 272 272 272 272 271 272 272 272 271 271 271 270 270 269 269 268 268 268 267 267 267 267 267 267 267 267 267 267 267 267 267 268 268 269 272 274 275 275 273 272 272 272 272 272 271 271 271
278 278 278 278 277 277 276 275 274 274 273 273 272 272 272 272 272 271 271 272 272 271 271 270 270 269 269 268 267 267 267 267 267 267 266 266 266 267 267 267 267 267 267 267 267 267 267 267 271 273 274 275 275 275 273 272 272 272 271 271 271 271
278 277 277 277 277 276 275 274 273 272 272 272 272 272 271 271 271 271 271 271 271 270 270 269 269 268 267 267 267 267 266 266 266 266 266 266 266 266 266 266 266 266 267 267 267 266 267 267 271 273 274 275 275 276 275 272 272 272 271 271 271 271
278 278 277 277 276 275 274 274 273 272 272 272 271 271 271 271 271 271 270 270 270 269 269 268 267 266 266 266 266 266 266 266 265 265 266 266 266 266 266 266 266 266 266 266 266 266 267 267 270 273 274 275 275 276 275 272 272 271 270 270 270 270
277 277 276 275 275 274 273 273 272 272 271 271 271 271 270 270 270 270 270 269 268 268 268 267 266 265 265 266 266 265 265 265 265 265 265 265 266 265 265 266 265 266 266 266 266 266 266 266 272 273 274 275 275 276 275 272 271 270 270 270 270 270
277 276 275 275 273 272 272 272 272 271 270 271 270 270 270 270 269 269 268 267 267 267 267 266 265 265 265 265 265 264 264 264 265 264 265 265 265 266 266 265 265 265 265 265 265 265 265 266 271 273 274 274 275 276 272 271 270 270 270 270 270 270
276 275 274 272 272 272 272 271 271 270 270 270 270 270 269 269 268 267 267 266 267 266 265 265 264 264 264 264 264 263 263 264 264 265 265 264 264 264 264 264 264 265 265 265 265 265 265 265 269 272 273 274 275 274 271 271 270 270 269 270 270 270
275 273 273 272 272 272 271 271 270 269 269 269 269 269 268 268 267 266 266 266 266 265 264 264 264 264 263 263 263 263 263 264 264 264 265 264 264 264 264 264 264 264 264 264 264 265 265 265 268 272 273 274 275 274 271 271 270 270 270 270 271 271
274 273 272 271 271 271 271 270 269 269 268 268 268 267 267 266 266 265 265 265 265 264 264 264 264 263 263 262 262 263 263 263 263 264 264 264 263 263 264 264 264 264 264 265 265 266 265 265 267 271 273 274 274 274 271 271 270 269 270 270 270 271
272 271 271 271 270 270 270 269 269 268 268 267 267 266 265 265 265 265 265 264 264 264 263 263 263 263 262 262 262 262 262 263 263 263 263 263 263 263 263 263 263 263 263 264 265 265 265 265 266 267 272 273 274 275 272 272 271 269 270 270 270 270
272 271 271 271 270 270 269 269 268 267 267 266 265 265 265 265 265 265 264 263 263 263 262 263 262 262 262 262 262 262 262 262 262 262 262 262 262 262 262 263 263 263 263 264 265 265 265 266 266 267 272 274 274 276 275 273 272 272 272 271 271 271
271 271 271 270 270 269 269 268 266 266 265 264 264 264 264 264 264 264 263 262 262 262 262 262 262 261 261 261 261 261 261 262 262 262 262 262 262 262 262 262 262 263 263 264 265 265 266 267 268 268 271 274 276 277 277 274 274 275 274 273 273 273
270 270 270 270 269 268 268 266 265 264 264 263 263 264 263 263 263 263 262 262 261 261 261 261 260 260 260 260 260 260 260 261 261 261 261 261 261 261 261 262 262 263 263 264 265 266 267 268 269 271 271 274 276 276 277 278 277 278 275 273 272 272
270 269 269 269 268 267 266 265 264 263 262 262 263 263 263 263 262 262 261 260 260 260 260 260 259 260 260 260 260 260 260 260 260 260 261 261 261 261 261 261 262 263 263 263 265 266 268 269 270 271 272 272 275 276 277 278 278 278 275 274 272 271
268 268 267 267 266 266 265 265 263 261 261 262 262 262 262 262 261 260 259 259 259 259 259 259 259 259 259 259 260 259 259 259 260 260 260 260 260 261 261 262 263 263 263 264 265 266 268 270 270 270 271 272 272 275 277 277 277 277 277 273 272 271
266 266 265 265 265 265 264 264 263 260 261 262 262 262 261 260 258 258 258 258 258 258 258 258 258 258 259 259 259 259 260 259 259 259 260 260 260 261 262 262 263 264 264 265 266 267 268 269 269 270 270 271 272 273 275 276 276 274 275 273 272 273
265 265 264 263 265 264 263 261 262 262 261 261 261 261 259 258 257 257 257 257 257 257 257 257 257 258 258 259 260 260 260 260 260 260 260 260 261 261 262 263 263 264 265 266 267 268 269 268 269 269 269 270 271 272 273 273 273 274 273 271 270 272
263 263 262 263 264 263 262 261 260 260 260 260 261 259 258 257 257 257 256 256 257 257 257 257 258 258 258 259 259 259 260 260 260 260 260 261 261 262 262 263 264 265 266 267 268 268 267 267 268 268 269 270 271 272 272 272 272 271 271 270 270 270
262 262 262 262 263 262 261 259 259 259 259 260 260 258 257 257 257 257 256 256 256 256 257 257 257 258 258 258 259 260 261 260 261 261 262 263 264 264 264 265 266 268 269 268 267 266 266 266 266 268 272 272 274 272 272 271 271 271 270 271 274 270
261 261 261 262 262 261 259 259 259 259 260 259 258 258 256 256 256 256 256 256 256 256 257 257 257 258 258 258 259 259 260 263 265 265 264 264 266 268 271 272 269 269 269 268 268 268 267 266 268 273 275 274 275 275 275 275 275 274 272 273 274 269
261 260 259 261 261 259 258 258 258 258 259 259 258 258 257 256 256 255 256 256 256 257 257 257 257 258 258 259 259 259 259 260 262 266 267 268 267 267 270 272 272 273 272 269 267 269 272 272 273 274 274 274 274 274 275 275 274 274 274 274 269 265
261 260 260 260 259 258 258 257 258 258 258 257 257 257 256 256 255 255 255 256 256 257 257 257 257 258 258 258 259 259 259 259 260 261 265 267 267 269 271 271 271 272 272 272 270 268 267 270 272 273 273 273 274 274 274 274 273 273 273 273 271 264
261 261 260 259 257 257 257 256 257 257 257 257 256 256 255 255 255 255 255 255 256 257 257 257 257 258 258 258 259 259 260 260 260 260 261 264 266 268 269 269 270 270 270 271 271 271 271 271 271 272 272 273 273 273 273 273 272 272 272 271 265 263
260 259 258 257 256 256 256 256 256 256 257 256 256 255 254 254 254 254 255 256 257 256 256 257 257 257 258 258 259 259 260 260 260 261 261 261 262 263 265 266 268 267 269 269 270 270 270 271 271 271 272 272 272 273 273 272 267 271 271 269 264 263
257 257 258 258 256 256 255 255 255 256 256 256 255 255 254 254 255 255 256 257 257 256 257 257 258 258 258 259 259 259 260 260 261 261 261 261 261 260 260 261 262 264 265 264 265 268 269 269 270 270 271 271 272 272 272 270 264 263 263 264 264 263
257 256 256 256 255 254 254 254 256 257 255 255 255 255 254 255 255 255 256 256 257 257 257 258 258 258 259 259 260 260 260 261 261 261 261 261 261 261 260 261 261 262 263 264 264 264 265 265 266 268 270 270 271 271 270 262 262 262 262 262 263 263
Wind_Speed
8 8 8 8 7 7 7 8 8 7 7 7 6 7 7 7 6 6 6 6 6 7 9 10 10 10 10 11 11 12 12 14 13 13 13 13 12 12 12 13 13 13 12 13 13 13 14 13 13 13 12 11 11 11 11 11 11 10 11 11 11 11
8 8 8 8 8 8 8 8 7 8 7 7 6 6 6 7 8 7 9 9 9 10 10 10 10 11 11 11 12 12 13 12 12 12 12 12 12 12 13 12 13 13 14 13 13 13 13 13 12 11 12 11 10 10 10 10 10 11 12 11 10 9
8 8 8 7 7 6 6 6 6 6 6 6 6 7 8 7 8 9 9 9 9 10 11 12 12 13 12 13 13 12 12 12 12 11 12 12 12 12 12 12 12 13 12 13 13 12 12 12 12 10 10 10 12 10 11 11 11 11 10 11 12 11
7 7 7 6 6 7 7 7 6 6 6 5 6 6 6 8 10 9 9 9 9 10 12 13 12 12 12 13 12 12 12 12 11 12 13 12 12 10 12 14 12 12 14 13 14 13 14 13 13 14 11 13 12 13 10 12 13 12 13 13 14 14
6 6 7 7 7 7 7 6 5 5 5 6 6 7 9 8 9 9 9 10 11 12 12 12 12 12 13 13 12 12 12 12 12 11 12 11 12 13 13 14 12 14 12 14 14 13 13 12 14 13 12 12 12 14 13 12 13 13 14 13 13 13
6 6 7 8 7 7 6 5 5 5 5 5 6 8 10 9 8 9 10 11 13 12 13 12 12 13 12 12 11 13 13 12 11 11 12 12 13 12 13 11 14 14 13 14 14 14 13 14 11 12 11 12 13 13 13 13 12 13 13 15 15 13
7 7 7 7 7 5 5 5 5 5 6 6 8 8 8 8 8 10 11 11 13 13 12 13 12 12 13 13 11 12 12 13 12 10 12 13 13 13 11 13 12 13 14 12 13 13 14 13 14 14 13 13 12 13 14 14 14 14 13 14 13 16
7 7 7 7 6 5 4 5 5 5 6 8 7 8 8 9 9 9 10 11 12 12 13 12 12 13 13 12 11 11 12 13 12 12 12 11 14 14 12 13 11 11 13 13 13 13 13 14 13 13 13 13 11 12 12 12 12 12 14 15 15 15
8 8 8 6 5 4 4 4 5 6 7 8 7 6 8 10 10 10 11 11 11 11 12 12 13 12 12 12 12 12 13 12 12 14 13 11 12 12 13 11 13 12 12 13 13 14 14 13 12 12 13 13 12 13 14 14 14 13 13 12 14 14
8 8 7 5 4 4 4 5 6 7 7 9 8 8 9 9 10 11 11 11 11 11 12 11 11 11 12 12 12 13 13 13 13 11 11 11 12 12 11 13 12 13 14 14 14 14 13 13 12 12 11 11 11 13 15 16 16 17 16 17 17 18
8 8 6 4 4 5 5 6 6 6 7 6 7 9 9 9 10 11 11 11 11 11 11 11 10 10 11 12 13 13 12 12 12 12 12 11 11 11 12 13 13 14 15 14 14 14 14 12 12 11 12 14 16 16 16 17 17 17 17 18 18 18
8 6 4 4 5 5 5 6 7 7 8 8 9 9 9 9 10 10 11 11 11 11 10 11 10 11 12 12 13 11 12 11 12 12 12 13 12 12 13 13 13 13 14 15 15 14 13 12 11 16 25 23 17 17 16 16 17 17 17 18 18 18
6 4 4 5 5 5 5 6 7 7 7 8 9 9 9 9 10 10 10 11 11 11 11 11 11 12 12 12 12 12 13 13 12 12 13 13 13 14 14 14 14 14 14 15 15 16 14 12 12 24 25 26 28 20 17 17 17 17 17 17 18 18
4 4 4 4 4 5 5 7 7 8 9 9 10 10 9 9 10 10 11 11 11 11 12 11 12 12 12 12 13 13 12 13 13 13 13 13 14 13 13 14 14 14 15 14 15 15 14 14 20 26 27 27 28 26 19 17 17 17 17 17 17 17
3 3 4 4 4 5 6 6 8 9 9 10 10 10 9 10 10 11 11 11 11 12 12 13 13 13 13 13 13 12 13 13 13 13 14 14 14 14 14 14 15 15 14 14 16 16 15 14 22 27 28 28 29 29 26 18 17 16 17 16 18 17
3 3 3 3 4 4 5 5 7 8 9 9 9 9 10 10 10 10 11 11 12 13 12 12 13 13 13 13 13 13 13 13 14 14 13 13 13 14 15 15 16 15 15 15 16 16 16 16 21 28 28 28 29 29 26 18 17 16 16 17 17 17
3 3 3 4 4 5 6 7 6 8 9 9 10 9 10 10 11 11 11 13 13 12 12 13 13 13 13 13 13 13 14 14 14 15 14 13 14 14 14 15 15 15 15 15 15 15 15 14 24 27 29 29 30 30 28 18 18 16 16 18 17 17
3 3 3 3 4 5 6 8 8 9 10 9 9 10 10 10 11 11 12 13 12 12 12 13 13 13 13 13 14 14 15 15 15 15 14 14 14 13 13 13 13 15 16 16 16 16 16 16 26 28 29 30 30 32 20 17 17 17 18 15 16 20
1 1 3 4 5 6 7 7 8 9 10 9 9 10 10 11 11 11 12 12 12 13 13 13 13 13 14 14 14 15 15 15 15 14 13 14 14 14 15 14 14 13 15 17 16 16 17 17 23 29 31 31 33 27 18 18 17 17 15 18 18 15
1 2 3 5 5 5 7 8 9 9 9 10 10 11 11 10 10 12 12 13 13 13 13 13 13 13 14 14 15 15 15 14 13 13 12 14 15 15 15 14 13 13 12 15 16 15 16 18 22 29 30 31 32 28 20 17 17 14 19 17 18 19
2 3 3 4 7 7 7 8 9 9 10 10 11 11 10 10 11 12 13 13 13 13 12 12 13 13 14 15 15 14 15 14 14 13 13 12 13 14 14 14 14 14 13 13 15 18 19 17 19 27 30 33 32 26 19 17 13 15 13 16 16 20
3 4 5 6 7 7 8 8 8 9 10 10 10 10 10 11 12 12 12 13 13 12 12 11 12 13 14 14 14 14 14 13 13 14 14 13 11 13 13 13 12 14 14 13 14 14 15 17 17 19 30 31 31 31 23 15 14 13 14 15 17 14
3 4 5 5 6 7 8 8 9 9 9 10 10 10 11 12 12 12 12 12 12 12 12 11 11 14 14 13 13 13 13 12 13 13 12 12 12 12 13 14 13 13 13 12 13 13 13 12 16 18 29 30 30 32 27 15 15 16 15 13 13 12
4 5 5 5 6 7 7 8 9 8 9 9 9 10 11 11 11 11 11 12 13 13 12 12 12 11 11 11 11 12 12 11 11 11 12 11 11 13 14 14 13 13 13 12 13 12 14 14 18 15 20 27 31 31 34 22 17 20 18 18 16 16
5 6 5 6 6 7 7 7 8 8 9 9 10 11 11 11 11 12 13 13 13 13 12 11 11 10 9 10 11 11 12 12 11 11 11 11 13 12 13 13 13 14 14 14 11 11 12 12 14 19 19 27 31 33 32 34 26 32 21 16 17 16
4 6 6 6 6 6 6 7 8 8 9 10 10 10 11 11 12 13 13 11 11 12 11 10 10 10 9 10 11 11 12 12 12 11 9 10 11 11 12 11 12 12 13 15 15 13 12 12 12 17 26 24 32 32 33 32 34 33 21 19 14 15
6 6 7 7 7 5 5 6 8 8 9 9 10 11 11 12 12 11 10 10 10 10 11 10 9 10 9 9 9 10 11 12 11 12 11 10 11 11 11 12 11 12 13 14 15 15 14 13 14 14 18 28 29 31 31 32 33 32 32 20 15 16
4 6 9 8 6 6 5 6 7 7 9 10 10 11 11 11 11 11 10 10 10 10 10 11 11 9 10 10 8 9 9 9 10 10 11 10 10 10 11 12 12 12 13 13 13 14 14 14 12 13 14 16 17 19 27 32 31 30 30 28 21 28
6 7 7 9 7 6 5 4 5 6 8 8 9 8 9 9 9 10 10 11 10 10 10 11 10 10 9 9 9 9 8 8 8 9 10 9 10 11 11 11 12 13 13 13 13 13 12 13 11 12 12 13 13 13 16 17 16 21 22 17 14 15
5 7 7 8 7 6 6 5 5 6 6 6 7 8 10 9 9 9 10 11 9 8 9 10 12 12 10 8 9 10 11 11 10 8 8 10 10 11 11 12 12 13 13 13 12 12 14 13 11 12 14 16 15 15 14 13 13 13 13 14 14 15
5 5 6 7 7 6 5 5 5 5 6 6 7 8 9 10 10 9 9 9 9 9 9 8 9 9 10 11 9 6 7 9 10 13 12 8 7 9 11 13 13 11 12 13 13 15 17 16 14 15 23 24 28 24 20 16 15 15 14 20 29 19
5 6 6 6 6 6 6 6 6 5 5 6 7 8 8 10 10 9 9 8 8 9 10 9 9 9 10 11 11 12 10 8 13 12 11 11 14 20 23 19 13 14 13 13 11 11 14 14 16 29 34 32 32 32 33 30 32 30 24 28 33 21
5 4 5 6 6 6 6 6 6 6 6 7 8 7 8 8 8 8 8 9 8 9 9 9 10 10 9 9 11 11 13 14 8 11 17 17 16 20 23 21 22 23 24 17 14 15 25 27 30 32 31 32 31 31 32 32 32 32 31 31 22 15
5 5 5 6 6 5 5 6 6 6 6 7 7 7 7 7 7 8 8 8 8 9 9 8 9 10 10 10 9 9 11 12 17 17 9 12 19 21 21 20 21 24 25 26 23 19 15 24 30 32 31 31 32 30 30 31 32 31 30 30 26 14
4 5 5 5 5 5 5 5 6 5 7 7 7 7 7 7 7 9 9 9 9 9 10 9 9 9 9 10 12 11 10 11 11 13 19 19 14 17 21 22 22 23 25 27 27 27 25 26 28 32 31 31 31 32 31 32 31 28 28 27 15 12
4 4 4 4 4 6 5 6 6 6 7 7 7 7 6 7 6 6 7 8 9 10 9 9 9 9 9 9 9 9 10 9 9 11 12 14 17 17 12 11 16 19 26 26 27 27 30 30 30 31 31 31 30 31 32 32 24 28 27 22 13 13
3 3 4 5 4 5 6 6 6 6 7 7 7 7 7 7 7 6 8 11 9 7 8 8 8 9 9 9 9 10 11 11 11 10 11 11 13 14 15 16 15 15 19 20 20 27 31 31 31 31 30 30 30 31 33 29 16 18 17 16 13 13
1 3 4 4 4 4 5 6 5 6 7 7 7 8 7 7 8 7 7 7 8 8 7 8 8 8 9 10 10 10 9 10 10 10 10 11 11 11 13 13 13 13 16 23 21 26 29 30 30 29 28 27 28 28 27 15 15 15 15 16 15 14
Wind_Direction
294 292 290 291 292 293 294 299 307 311 311 317 327 324 321 316 316 315 315 318 319 321 320 320 321 322 321 318 318 319 317 315 314 313 310 309 309 309 307 305 303 303 300 298 297 296 295 293 291 288 286 282 280 277 277 273 270 268 268 267 268 270
286 287 290 294 298 306 307 307 309 313 320 331 329 328 329 329 328 326 327 326 323 321 321 323 324 322 320 319 320 316 314 312 312 310 309 307 308 305 303 302 301 302 301 301 300 300 298 297 294 293 291 288 281 281 280 277 273 272 271 270 264 267
291 293 298 300 302 301 302 305 312 315 326 333 335 333 326 327 325 328 326 325 323 325 327 326 326 322 321 318 317 314 312 313 312 311 308 308 306 306 304 305 307 307 309 309 308 309 310 309 308 307 304 301 298 294 291 290 286 283 279 278 274 270
290 302 306 305 309 310 315 313 324 331 336 331 330 330 324 324 326 327 324 324 326 328 326 324 321 319 317 316 315 314 314 315 315 313 311 308 309 316 318 317 314 312 311 309 308 308 306 305 304 303 301 296 296 294 292 291 289 284 281 278 277 274
296 299 298 298 304 307 310 321 333 332 334 335 327 322 321 325 323 325 328 329 329 326 323 320 318 317 316 316 317 317 318 317 316 317 316 317 319 318 313 310 308 309 309 307 306 304 303 301 298 296 294 293 293 293 290 288 287 286 285 283 279 277
307 310 311 312 309 307 311 320 332 338 334 322 316 322 324 329 331 329 331 329 324 323 320 319 316 317 318 319 319 318 320 321 321 322 317 316 314 311 311 311 312 311 309 306 303 302 298 298 301 303 303 300 299 296 294 294 292 290 288 287 285 282
306 302 298 297 299 308 325 337 339 335 321 317 322 323 328 332 332 331 329 327 322 320 320 318 319 319 320 319 319 320 324 324 320 318 318 317 313 315 314 312 311 307 305 303 306 310 313 313 311 307 304 301 296 294 293 290 288 283 281 280 281 284
289 295 303 306 311 324 337 338 330 319 313 317 322 328 334 331 328 327 325 323 320 319 320 320 321 320 319 321 324 325 323 320 320 319 318 315 313 316 315 313 311 312 313 314 313 309 307 308 306 301 299 298 298 296 292 291 290 291 289 286 282 280
307 305 302 309 324 342 338 328 322 317 320 323 331 335 332 329 329 327 325 321 319 319 320 322 321 320 323 328 326 322 321 321 320 318 316 322 322 318 315 315 316 315 312 311 312 312 310 307 307 308 305 303 301 298 294 290 286 278 276 272 273 271
301 304 309 330 339 334 333 324 315 317 323 327 332 333 330 328 327 324 322 321 320 320 320 319 320 325 327 325 322 321 321 319 319 320 324 323 318 315 317 320 317 316 316 314 312 311 311 308 302 299 298 298 297 302 302 301 300 300 298 298 297 297
298 303 325 338 342 340 329 319 317 321 323 325 330 329 328 329 326 323 322 321 320 320 319 321 325 326 324 324 322 320 321 324 325 324 319 315 315 319 317 316 316 316 314 313 314 313 314 312 311 312 311 312 310 309 307 306 303 301 298 295 293 290
300 317 335 344 336 328 320 318 320 325 327 330 331 327 326 330 324 322 321 320 320 320 323 327 325 326 326 321 321 324 327 325 323 320 319 320 318 316 317 317 315 312 312 312 311 311 310 308 306 306 308 308 309 308 306 303 299 298 296 295 293 292
314 336 342 331 323 315 312 313 319 323 328 331 327 327 328 328 322 321 321 319 322 325 327 327 326 326 325 325 325 327 326 324 322 320 318 319 319 319 321 316 313 314 314 313 312 312 310 307 306 307 309 310 309 307 304 301 300 299 297 294 293 291
330 338 327 318 313 319 323 325 326 331 334 330 327 328 328 326 322 321 321 323 325 328 328 327 327 325 325 329 328 325 323 321 320 321 320 320 319 318 317 316 315 314 315 312 312 311 309 306 307 309 310 310 309 308 306 304 301 298 294 293 291 291
323 320 320 319 321 324 321 325 332 334 330 328 329 327 327 325 324 323 324 326 327 329 331 329 327 329 330 328 325 324 323 321 321 322 323 320 318 316 318 317 315 316 316 314 313 311 309 306 307 309 310 310 310 310 308 303 301 298 298 297 297 293
325 324 313 307 313 314 315 327 332 327 326 323 325 327 325 326 326 326 325 327 330 330 329 333 331 328 328 328 326 324 323 323 323 322 321 318 318 318 316 317 316 316 317 316 315 312 310 307 308 310 312 313 313 311 311 307 304 302 299 298 295 294
317 328 331 332 325 320 329 335 340 330 328 329 329 330 328 329 327 327 331 330 328 330 333 335 332 327 327 327 327 326 325 324 324 324 323 320 320 318 318 317 316 315 315 315 312 310 308 303 306 310 312 312 312 311 311 307 303 296 292 292 285 286
321 321 308 314 322 332 345 340 335 333 330 331 329 328 330 329 330 333 332 328 332 335 336 333 329 326 326 328 330 329 326 325 324 324 322 319 317 317 315 313 311 312 311 310 309 308 305 302 304 308 311 312 313 313 312 306 298 294 288 279 284 281
345 316 314 329 339 346 344 334 337 334 329 331 331 331 331 331 331 333 332 328 332 337 335 330 327 327 328 329 329 328 327 325 323 322 322 318 318 317 314 312 312 309 308 308 307 305 304 301 302 307 309 310 311 311 306 302 298 294 284 286 279 273
354 335 345 337 339 347 342 344 340 335 330 331 334 336 333 336 336 332 331 331 333 331 330 330 328 327 328 329 329 326 323 322 318 318 319 318 317 314 313 310 305 303 300 301 300 297 298 296 297 303 304 306 307 309 306 300 292 280 287 277 279 278
331 319 335 342 348 350 347 341 339 336 333 335 338 335 333 339 334 333 333 331 329 327 329 329 328 328 328 326 326 323 322 322 319 315 315 313 310 308 308 307 306 303 300 295 293 291 292 292 292 298 306 305 304 306 303 301 293 284 276 279 277 282
339 355 358 355 348 344 345 343 342 339 335 339 338 336 339 337 331 330 328 327 325 326 326 327 328 327 326 324 321 321 319 315 314 314 314 311 309 307 305 302 300 299 298 296 292 292 286 287 285 291 302 304 305 304 307 301 290 280 274 272 280 280
6 355 352 350 349 350 346 344 344 340 341 339 334 339 339 331 328 328 327 325 322 323 325 325 327 326 322 320 318 316 313 314 313 310 309 309 308 304 303 301 298 297 294 296 295 293 291 284 286 286 298 304 305 312 316 304 299 292 288 288 291 288
356 350 355 357 354 351 349 350 344 340 340 337 338 340 333 328 327 326 327 326 323 323 323 323 324 323 318 315 315 314 312 310 308 307 308 308 305 304 303 306 304 302 300 299 299 295 295 295 288 286 289 311 320 322 321 317 309 312 315 314 308 307
353 349 345 347 356 355 356 353 344 341 340 336 339 336 331 329 328 329 328 325 322 320 320 321 322 320 317 313 313 311 311 311 310 310 309 309 311 308 307 308 308 308 308 308 306 303 301 300 305 308 317 321 322 322 322 322 321 323 322 315 313 320
349 337 344 348 358 355 2 357 346 343 339 337 338 333 331 331 331 328 325 321 318 317 318 321 319 316 313 311 312 312 310 311 312 311 310 312 311 311 310 310 310 312 313 316 316 316 316 318 318 320 322 322 323 322 324 325 325 325 324 322 321 319
346 337 337 351 355 355 4 3 350 341 340 339 337 334 335 333 329 325 320 320 319 318 317 318 317 315 312 311 312 312 313 312 314 314 316 316 313 310 309 309 311 311 312 311 314 315 320 324 323 319 318 321 318 319 324 327 326 327 327 327 322 313
343 347 341 340 351 355 6 3 356 344 340 336 335 336 335 331 325 322 321 320 319 318 319 318 318 315 314 313 310 305 303 303 308 308 308 311 308 307 308 313 314 313 311 309 309 316 320 322 318 315 315 315 310 314 324 326 327 326 329 330 320 318
350 346 342 333 344 359 357 1 353 345 333 327 333 335 331 326 324 320 322 323 321 320 321 321 318 320 320 318 316 311 305 302 302 306 308 307 308 310 312 312 314 311 311 311 316 315 315 316 315 318 314 314 319 322 321 323 319 324 329 326 313 319
356 341 338 333 338 353 353 355 344 337 329 329 344 337 330 325 326 326 322 321 320 319 319 318 319 321 320 319 320 321 322 320 316 307 302 306 308 308 308 312 311 312 315 321 324 323 322 321 321 324 324 326 328 326 325 320 321 329 332 325 326 338
346 338 334 329 338 346 348 345 336 333 335 341 347 337 330 326 326 324 321 322 324 322 322 318 320 320 320 320 317 307 300 304 310 311 305 292 284 293 308 310 311 316 324 325 328 328 325 327 330 328 330 331 333 334 334 334 337 338 333 332 337 338
357 338 335 330 337 344 343 339 336 336 339 345 343 335 332 328 326 326 327 329 324 320 324 328 328 326 324 324 325 324 315 303 305 305 303 308 310 316 318 321 323 330 334 327 326 327 327 326 323 328 333 335 337 338 338 338 339 338 336 337 341 339
347 335 332 332 342 342 338 334 332 335 343 348 339 335 331 328 326 325 326 327 326 325 326 323 324 326 324 322 325 325 325 324 321 324 323 319 319 323 325 333 332 335 339 339 330 329 330 329 331 335 337 338 340 340 340 341 341 339 339 343 343 341
346 339 333 337 339 335 330 330 331 336 340 339 333 331 330 328 327 325 323 320 317 322 326 322 320 322 325 328 327 328 329 332 330 328 329 331 331 333 337 336 338 339 341 342 342 338 331 336 339 340 341 340 341 342 343 343 342 339 341 345 347 334
335 323 328 334 330 330 331 331 329 334 337 335 332 331 330 329 328 324 321 319 320 324 326 325 325 325 328 328 330 331 332 330 329 327 325 330 339 340 338 338 340 342 342 344 343 344 343 340 340 342 343 344 343 344 345 344 340 339 345 346 346 340
324 322 328 329 331 330 329 330 327 335 332 329 326 327 320 319 316 310 309 317 322 324 324 327 325 326 326 323 320 320 323 321 319 318 318 321 328 335 336 333 337 340 341 343 345 345 344 343 344 344 345 345 345 346 346 346 340 343 350 352 342 340
316 329 328 335 337 334 330 327 325 328 326 324 324 325 325 322 323 318 318 318 319 318 319 319 322 323 322 323 325 326 326 324 322 322 325 329 329 329 332 334 334 340 346 342 341 343 342 344 344 345 345 346 347 348 348 344 341 346 345 347 348 343
320 329 336 339 329 326 325 319 321 328 323 324 324 328 327 327 325 324 323 323 325 325 320 322 321 322 323 323 324 321 317 316 321 328 328 327 326 328 330 328 334 330 331 337 340 340 341 341 341 342 344 345 348 349 349 344 346 342 343 341 341 341